Weather History for Birmingham, United Kingdom

Change the Weather History Date:

Saturday, January 19, 2013

  Actual Average Record
Temperature  
Mean Temperature 31 °F -  
Max Temperature 32 °F 43 °F 55 °F (1999)
Min Temperature 30 °F 32 °F 28 °F (2000)
Degree Days  
Heating Degree Days 34    
Moisture  
Dew Point 28 °F    
Average Humidity 89    
Maximum Humidity 93    
Minimum Humidity 80    
Precipitation  
Precipitation 0.00 in 0.07 in - ()
Sea Level Pressure  
Sea Level Pressure 29.49 in    
Wind  
Wind Speed 7 mph ()    
Max Wind Speed 10 mph    
Max Gust Speed 23 mph    
Visibility 4.8 miles    
Events Snow    
Averages and records for this station are not official NWS values.
T = Trace of Precipitation, MM = Missing Value Source: Averaged Metar Reports

Daily Weather History Graph

Daily Weather History Graph

Search for Another Location

Airport:

Trip Planner

Search our weather history database for the weather conditions in past years. The results will help you decide how hot, cold, wet, or windy it might be!

Date:

Astronomy

Jan. 19, 2013 Rise Set
Actual Time 8:06 AM GMT 4:30 PM GMT
Civil Twilight 7:27 AM GMT 5:09 PM GMT
Nautical Twilight 6:44 AM GMT 5:51 PM GMT
Astronomical Twilight 6:04 AM GMT 6:32 PM GMT
Moon 10:59 AM GMT (1/19) 1:11 AM GMT (1/19)
Length of Visible Light 9h 41m
Length of Day
8h 23m
First Quarter, 55% of the Moon is Illuminated
Jan 19
First Quarter
Jan 27
Full
Feb 3
Last Quarter
Feb 10
New
Feb 17
First Quarter

Hourly Weather History & Observations

Time (GMT) Temp. Windchill Dew Point Humidity Pressure Visibility Wind Dir Wind Speed Gust Speed Precip Events Conditions
12:20 AM 30.2 °F 22.6 °F 26.6 °F 86% 29.44 in 3.1 mi ENE 8.1 mph - N/A   Mostly Cloudy
12:50 AM 30.2 °F 23.4 °F 28.4 °F 93% 29.44 in 3.1 mi East 6.9 mph - N/A   Mostly Cloudy
1:20 AM 30.2 °F 23.4 °F 28.4 °F 93% 29.44 in 3.1 mi ENE 6.9 mph - N/A   Mostly Cloudy
1:50 AM 30.2 °F 22.6 °F 28.4 °F 93% 29.44 in 3.1 mi East 8.1 mph - N/A   Overcast
2:20 AM 30.2 °F 22.6 °F 28.4 °F 93% 29.44 in 3.1 mi ENE 8.1 mph - N/A   Mostly Cloudy
2:50 AM 30.2 °F 21.9 °F 28.4 °F 93% 29.44 in 3.1 mi ENE 9.2 mph - N/A   Overcast
3:20 AM 30.2 °F 21.9 °F 28.4 °F 93% 29.44 in 3.1 mi ENE 9.2 mph - N/A   Mostly Cloudy
3:50 AM 30.2 °F 21.9 °F 28.4 °F 93% 29.44 in 3.1 mi ENE 9.2 mph - N/A   Mostly Cloudy
4:20 AM 30.2 °F 22.6 °F 28.4 °F 93% 29.44 in 3.1 mi ENE 8.1 mph - N/A   Mostly Cloudy
4:50 AM 30.2 °F 22.6 °F 28.4 °F 93% 29.44 in 3.1 mi ENE 8.1 mph - N/A   Mostly Cloudy
5:20 AM 30.2 °F 22.6 °F 28.4 °F 93% 29.44 in 3.7 mi ENE 8.1 mph - N/A   Mostly Cloudy
5:50 AM 30.2 °F 22.6 °F 28.4 °F 93% 29.44 in 3.7 mi ENE 8.1 mph - N/A   Overcast
6:20 AM 30.2 °F 22.6 °F 28.4 °F 93% 29.44 in 3.7 mi ENE 8.1 mph - N/A   Mostly Cloudy
6:50 AM 32.0 °F 24.2 °F 28.4 °F 87% 29.44 in 5.6 mi ENE 9.2 mph - N/A   Mostly Cloudy
7:20 AM 32.0 °F 24.8 °F 28.4 °F 87% 29.44 in 5.6 mi ENE 8.1 mph - N/A   Mostly Cloudy
7:50 AM 32.0 °F 24.8 °F 28.4 °F 87% 29.47 in 5.6 mi ENE 8.1 mph - N/A   Mostly Cloudy
8:20 AM 32.0 °F 24.8 °F 28.4 °F 87% 29.47 in 5.0 mi ENE 8.1 mph - N/A   Mostly Cloudy
8:50 AM 32.0 °F 25.6 °F 28.4 °F 87% 29.47 in 5.0 mi ENE 6.9 mph - N/A Snow Light Snow
9:20 AM 32.0 °F 25.6 °F 28.4 °F 87% 29.47 in 5.6 mi NE 6.9 mph - N/A   Overcast
9:50 AM 32.0 °F 25.6 °F 28.4 °F 87% 29.50 in 5.6 mi ENE 6.9 mph - N/A   Overcast
10:20 AM 32.0 °F 24.8 °F 28.4 °F 87% 29.50 in 6.2 mi ENE 8.1 mph - N/A   Overcast
10:50 AM 32.0 °F 24.8 °F 28.4 °F 87% 29.50 in 5.6 mi ENE 8.1 mph - N/A   Overcast
11:20 AM 32.0 °F 24.2 °F 28.4 °F 87% 29.50 in 5.6 mi NE 9.2 mph - N/A   Mostly Cloudy
11:50 AM 32.0 °F 24.8 °F 28.4 °F 87% 29.50 in 6.2 mi NE 8.1 mph - N/A   Scattered Clouds
12:20 PM 32.0 °F 24.8 °F 28.4 °F 87% 29.47 in 6.2 mi NNE 8.1 mph - N/A   Mostly Cloudy
12:50 PM 32.0 °F 24.2 °F 28.4 °F 87% 29.47 in 6.2 mi NNE 9.2 mph - N/A   Overcast
1:20 PM 32.0 °F 23.6 °F 28.4 °F 87% 29.47 in 6.2 mi NE 10.4 mph - N/A   Overcast
1:50 PM 32.0 °F 24.2 °F 26.6 °F 80% 29.47 in 6.2 mi NE 9.2 mph 23.0 mph N/A   Overcast
2:20 PM 32.0 °F 24.8 °F 28.4 °F 87% 29.50 in 5.6 mi NE 8.1 mph - N/A   Mostly Cloudy
2:50 PM 32.0 °F 24.8 °F 28.4 °F 87% 29.50 in 5.6 mi NE 8.1 mph - N/A   Mostly Cloudy
3:20 PM 32.0 °F 25.6 °F 28.4 °F 87% 29.50 in 5.0 mi NE 6.9 mph - N/A   Mostly Cloudy
3:50 PM 32.0 °F 25.6 °F 28.4 °F 87% 29.50 in 4.3 mi Variable 6.9 mph - N/A   Overcast
4:20 PM 32.0 °F 25.6 °F 28.4 °F 87% 29.50 in 5.0 mi ENE 6.9 mph - N/A   Overcast
4:50 PM 32.0 °F 25.6 °F 28.4 °F 87% 29.53 in 5.0 mi NE 6.9 mph - N/A   Overcast
5:20 PM 30.2 °F 23.4 °F 28.4 °F 93% 29.53 in 4.3 mi NE 6.9 mph - N/A   Overcast
5:50 PM 30.2 °F 23.4 °F 28.4 °F 93% 29.53 in 4.3 mi NE 6.9 mph - N/A   Overcast
6:20 PM 30.2 °F 23.4 °F 28.4 °F 93% 29.53 in 4.3 mi NNE 6.9 mph - N/A   Mostly Cloudy
6:50 PM 30.2 °F 21.9 °F 28.4 °F 93% 29.53 in 4.3 mi NE 9.2 mph - N/A Snow Light Snow Grains
7:20 PM 32.0 °F 25.6 °F 28.4 °F 87% 29.53 in 4.3 mi NE 6.9 mph - N/A Snow Light Snow Grains
7:50 PM 30.2 °F 23.4 °F 28.4 °F 93% 29.56 in 4.3 mi ENE 6.9 mph - N/A Snow Light Snow Grains
8:20 PM 30.2 °F 23.4 °F 28.4 °F 93% 29.56 in 5.0 mi NE 6.9 mph - N/A Snow Light Snow Grains
8:50 PM 30.2 °F 22.6 °F 28.4 °F 93% 29.53 in 5.0 mi NE 8.1 mph - N/A Snow Light Snow
9:20 PM 30.2 °F 24.3 °F 28.4 °F 93% 29.53 in 5.0 mi North 5.8 mph - N/A Snow Light Snow Grains
9:50 PM 30.2 °F 22.6 °F 28.4 °F 93% 29.53 in 5.6 mi NNE 8.1 mph - N/A   Mostly Cloudy
10:20 PM 30.2 °F 22.6 °F 28.4 °F 93% 29.53 in 5.0 mi NNE 8.1 mph - N/A   Mostly Cloudy
10:50 PM 32.0 °F 24.8 °F 28.4 °F 87% 29.53 in 6.2 mi NNE 8.1 mph - N/A   Mostly Cloudy
11:20 PM 32.0 °F 25.6 °F 26.6 °F 80% 29.53 in 6.2 mi NNE 6.9 mph - N/A   Mostly Cloudy
11:50 PM 32.0 °F 26.4 °F 26.6 °F 80% 29.53 in 6.2 mi NE 5.8 mph - N/A   Mostly Cloudy